OneWeb SL0254

operational
NORAD ID: 48972 Int'l Des: 2021-060 Owner: ONEWEBN Country: UK Constellation: oneweb
LEOCIRCULARPOLARONEWEB_TYPE

Über OneWeb SL0254

Beschreibung wird geladen...

Live-Position

3D-Globus wird geladen...

Nächste Überflüge

Höhenverlauf

Altitude vs Time

uPlot chart will show altitude changes over time

Zweizeiliger Elementsatz

1 48972U 21060F 25258.50517227 .00000074 00000-0 15867-3 0 9991
2 48972 87.8984 283.5089 0001562 101.2304 258.9003 13.16593760203447
Epoch: 15. Sept. 2025 • Age: 20 hours

Aktueller Status

Höhe 1205.4 km
Geschwindigkeit 7.26 km/s
Subsatellitenpunkt 52.13°N, 163.73°E
Startdatum 1. Juli 2021
Alter 4.2 years
Typ internet

Technische Details

Klassifizierung Payload
Masse 148.00 kg
Trockenmasse 140.00 kg
Gesamtmasse 148.00 kg
Länge 1.30 m
Durchmesser 1.00 m
Spannweite 5.00 m
Form Trapezoid+2 pan
Hersteller ONEWUS
Bus-Typ ARROW
Phasenstatus In Orbit
Besitzer/Staat ONEWEBN/UK

Große Konstellationen

Loading constellations...